Weather History for KFLG - November, 2011

Change the Weather History Date:

Saturday, November 19, 2011

  Actual Average Record
Temperature  
Mean Temperature 41 °F 35 °F  
Max Temperature 47 °F 49 °F 69 °F (1949)
Min Temperature 34 °F 22 °F -6 °F (1985)
Degree Days  
Heating Degree Days 24 30  
Month to date heating degree days 568 502  
Since 1 July heating degree days 1309 1385  
Cooling Degree Days 0 0  
Month to date cooling degree days 0 0  
Year to date cooling degree days 170 117  
Moisture  
Dew Point 31 °F    
Average Humidity 69    
Maximum Humidity 89    
Minimum Humidity 49    
Precipitation  
Precipitation 0.00 in 0.05 in 0.49 in (1940)
Month to date precipitation 1.67 1.07  
Year to date precipitation 18.42 19.30  
Snow  
Snow 0.00 in 0.40 in 5.50 in (1979)
Month to date snowfall 12.5 5.3  
Since 1 July snowfall 12.5 6.8  
Snow Depth 0.00 in    
Sea Level Pressure  
Sea Level Pressure 29.82 in    
Wind  
Wind Speed 19 mph (SW)    
Max Wind Speed 32 mph    
Max Gust Speed 40 mph    
Visibility 10 miles    
Events      
T = Trace of Precipitation, MM = Missing Value Source: NWS Daily Summary

Daily Weather History Graph

Daily Weather History Graph

Search for Another Location

Airport or City:

Trip Planner

Search our weather history database for the weather conditions in past years. The results will help you decide how hot, cold, wet, or windy it might be!

Date:

Astronomy

Nov. 19, 2011 Rise Set
Actual Time 7:05 AM MST 5:18 PM MST
Civil Twilight 6:37 AM MST 5:45 PM MST
Nautical Twilight 6:07 AM MST 6:16 PM MST
Astronomical Twilight 5:36 AM MST 6:46 PM MST
Moon 12:43 AM MST (11/19) 1:25 PM MST (11/19)
Length of Visible Light 11h 07m
Length of Day
10h 13m
Last Quarter, 37% of the Moon is Illuminated
Nov 19
Last Quarter
Nov 24
New
Dec 2
First Quarter
Dec 10
Full
Dec 17
Last Quarter

Hourly Weather History & Observations

Time (MST) Temp. Windchill Dew Point Humidity Pressure Visibility Wind Dir Wind Speed Gust Speed Precip Events Conditions
12:57 AM 37.9 °F 27.9 °F 33.1 °F 83% 29.76 in 10.0 mi SW 19.6 mph - N/A   Mostly Cloudy
1:57 AM 37.9 °F 27.9 °F 34.0 °F 86% 29.76 in 10.0 mi SW 19.6 mph 28.8 mph N/A   Mostly Cloudy
2:57 AM 37.9 °F 27.6 °F 33.1 °F 83% 29.75 in 10.0 mi SW 20.7 mph 26.5 mph N/A   Overcast
3:57 AM 37.0 °F 28.9 °F 33.1 °F 86% 29.75 in 10.0 mi WSW 12.7 mph 24.2 mph N/A   Overcast
4:50 AM 35.6 °F 26.2 °F 30.2 °F 81% 29.88 in 10.0 mi SW 15.0 mph - N/A   Scattered Clouds
4:57 AM 35.1 °F 24.8 °F 30.9 °F 85% 29.76 in 10.0 mi SW 17.3 mph - N/A   Partly Cloudy
5:57 AM 35.6 °F 25.5 °F 30.2 °F 81% 29.88 in 10.0 mi SW 17.3 mph 23.0 mph N/A   Clear
6:40 AM 35.6 °F 25.5 °F 32.0 °F 87% 29.89 in 10.0 mi SW 17.3 mph 25.3 mph N/A   Mostly Cloudy
6:57 AM 36.0 °F 25.6 °F 32.0 °F 86% 29.80 in 10.0 mi SW 18.4 mph 28.8 mph N/A   Overcast
7:57 AM 36.0 °F 25.6 °F 32.0 °F 86% 29.81 in 10.0 mi SW 18.4 mph 29.9 mph N/A   Mostly Cloudy
8:57 AM 37.0 °F 26.2 °F 33.1 °F 86% 29.83 in 10.0 mi SW 21.9 mph 27.6 mph N/A   Overcast
9:57 AM 37.9 °F 27.9 °F 33.1 °F 83% 29.85 in 10.0 mi SW 19.6 mph 29.9 mph N/A   Overcast
10:41 AM 39.2 °F 28.5 °F 32.0 °F 75% 29.94 in 10.0 mi WSW 24.2 mph 33.4 mph N/A   Mostly Cloudy
10:57 AM 41.0 °F 31.6 °F 32.0 °F 70% 29.82 in 10.0 mi SW 20.7 mph 33.4 mph N/A   Scattered Clouds
11:57 AM 44.1 °F 34.4 °F 30.9 °F 60% 29.79 in 10.0 mi SW 27.6 mph 36.8 mph N/A   Clear
12:57 PM 46.0 °F 37.0 °F 32.0 °F 58% 29.76 in 10.0 mi SW 27.6 mph 39.1 mph N/A   Clear
1:57 PM 45.0 °F 36.0 °F 30.0 °F 56% 29.76 in 10.0 mi SW 25.3 mph 36.8 mph N/A   Clear
2:57 PM 46.0 °F 37.4 °F 28.0 °F 50% 29.77 in 10.0 mi SW 25.3 mph 35.7 mph N/A   Scattered Clouds
3:57 PM 45.0 °F 37.1 °F 27.0 °F 49% 29.78 in 10.0 mi SW 19.6 mph 31.1 mph N/A   Clear
4:57 PM 42.1 °F 34.2 °F 28.0 °F 58% 29.81 in 10.0 mi SW 16.1 mph 23.0 mph N/A   Clear
5:57 PM 39.0 °F 29.6 °F 28.9 °F 67% 29.83 in 10.0 mi SW 18.4 mph 24.2 mph N/A   Clear
6:57 PM 37.9 °F 28.5 °F 30.0 °F 73% 29.85 in 10.0 mi SW 17.3 mph 26.5 mph N/A   Clear
7:57 PM 37.9 °F 29.6 °F 30.9 °F 76% 29.86 in 10.0 mi SW 13.8 mph 24.2 mph N/A   Partly Cloudy
8:57 PM 37.0 °F 27.7 °F 30.0 °F 76% 29.86 in 10.0 mi SW 16.1 mph 24.2 mph N/A   Clear
9:47 PM 37.4 °F 28.9 °F 30.2 °F 75% 29.96 in 10.0 mi SW 13.8 mph - N/A   Mostly Cloudy
9:57 PM 37.0 °F 28.1 °F 30.9 °F 79% 29.86 in 10.0 mi SW 15.0 mph 20.7 mph N/A   Mostly Cloudy
10:57 PM 37.0 °F 27.4 °F 32.0 °F 82% 29.86 in 10.0 mi SW 17.3 mph 24.2 mph N/A   Mostly Cloudy
11:57 PM 37.0 °F 27.0 °F 32.0 °F 82% 29.84 in 10.0 mi SSW 18.4 mph - N/A   Mostly Cloudy